Location: Lake Arresoe
(56.0000°N, 12.5000°E)
Time: 21:23:46
(UTC+02:00)

AO-85 - Visible Passes

Search period start: 30 April 2025 00:00
Search period end: 10 May 2025 00:00
Orbit: 488 x 721 km, 64.8° (Epoch: 29 April)

Date Brightness Start Highest point End Pass type
(mag) Time Alt. Az. Time Alt. Az. Time Alt. Az.
30 Apr ? 00:48:15 10° WNW 00:52:27 28° N 00:56:26 10° ENE visible
30 Apr ? 02:28:30 10° NW 02:33:03 44° NNE 02:37:16 10° E visible
30 Apr ? 04:08:19 10° NW 04:12:51 57° SW 04:17:01 10° SSE visible
30 Apr ? 21:39:27 10° WSW 21:44:28 69° NW 21:49:17 10° NE visible
30 Apr ? 23:20:21 10° WNW 23:24:47 32° NNW 23:29:01 10° NE visible
01 May ? 01:01:17 10° NW 01:05:31 30° N 01:09:31 10° ENE visible
01 May ? 02:41:19 10° NW 02:45:57 58° NNE 02:50:14 10° ESE visible
01 May ? 04:21:14 10° WNW 04:25:25 36° SW 04:29:18 10° S visible
01 May ? 21:52:26 10° WSW 21:57:20 52° NNW 22:02:01 10° NE visible
01 May ? 23:33:32 10° WNW 23:37:50 29° N 23:41:55 10° NE visible
02 May ? 01:14:13 10° NW 01:18:33 33° NNE 01:22:38 10° E visible
02 May ? 02:54:05 10° NW 02:58:45 81° NE 03:03:04 10° SE visible
02 May ? 04:34:19 10° WNW 04:37:52 23° WSW 04:41:13 10° S visible
02 May ? 22:05:32 10° W 22:10:15 41° NNW 22:14:45 10° NE visible
02 May ? 23:46:41 10° WNW 23:50:53 28° N 23:54:53 10° ENE visible
03 May ? 01:27:04 10° NW 01:31:33 39° NNE 01:35:42 10° E visible
03 May ? 03:06:51 10° NW 03:11:28 69° SW 03:15:42 10° SE visible
03 May ? 22:18:42 10° W 22:23:13 34° NNW 22:27:31 10° NE visible
03 May ? 23:59:44 10° NW 00:03:56 29° N 00:07:54 10° ENE visible
04 May ? 01:39:51 10° NW 01:44:26 50° NNE 01:48:42 10° ESE visible
04 May ? 03:19:42 10° NW 03:24:03 44° SW 03:28:05 10° SSE visible
04 May ? 22:31:53 10° WNW 22:36:13 30° N 22:40:21 10° NE visible
05 May ? 00:12:41 10° NW 00:16:57 31° NNE 00:20:58 10° ENE visible
05 May ? 01:52:36 10° NW 01:57:16 69° NE 02:01:34 10° ESE visible
05 May ? 03:32:40 10° WNW 03:36:32 28° WSW 03:40:09 10° S visible
05 May ? 22:45:01 10° WNW 22:49:15 28° N 22:53:15 10° ENE visible
06 May ? 00:25:32 10° NW 00:29:56 36° NNE 00:34:02 10° E visible
06 May ? 02:05:21 10° NW 02:09:59 83° SW 02:14:15 10° SE visible
06 May ? 03:45:54 10° WNW 03:48:53 18° WSW 03:50:58 13° SSW visible
06 May ? 22:58:05 10° WNW 23:02:16 28° N 23:06:13 10° ENE visible
07 May ? 00:38:19 10° NW 00:42:50 44° NNE 00:47:03 10° E visible
07 May ? 02:18:08 10° NW 02:22:36 54° SW 02:25:23 20° SSE visible
07 May ? 04:00:09 10° W 04:01:09 11° WSW 04:02:07 10° WSW visible
07 May ? 23:11:03 10° NW 23:15:17 30° N 23:19:15 10° ENE visible
08 May ? 00:51:03 10° NW 00:55:41 59° NNE 00:59:57 10° ESE visible
08 May ? 02:31:00 10° WNW 02:35:06 34° WSW 02:36:48 25° SSW visible
08 May ? 23:23:56 10° NW 23:28:15 33° NNE 23:32:18 10° E visible
09 May ? 01:03:46 10° NW 01:08:25 83° NE 01:11:37 18° SE visible
09 May ? 02:44:03 10° WNW 02:47:30 22° WSW 02:48:23 20° SW visible
09 May ? 21:56:22 10° WNW 22:00:32 28° N 22:04:30 10° ENE visible
09 May ? 23:36:42 10° NW 23:41:10 40° NNE 23:45:19 10° E visible
